| time (UTC) | temp C | wind direction | speed KPH | gust KPH | rain 1hr cm | rain 24hr cm | rain mn cm | humidity % | barometer mb |
| 20260510071550 | 6 | 349 | 1.6 | 19.3 | 0.00 | 0.23 | 0.00 | 65 | 1009.7 |
| 20260510070042 | 6 | 274 | 1.6 | 17.7 | 0.00 | 0.23 | 0.00 | 64 | 1009.6 |
| 20260510064537 | 7 | 279 | 1.6 | 16.1 | 0.00 | 0.23 | 0.00 | 61 | 1009.3 |
| 20260510063033 | 7 | 298 | 1.6 | 19.3 | 0.00 | 0.23 | 0.00 | 60 | 1009.2 |
| 20260510061531 | 8 | 317 | 1.6 | 8.0 | 0.00 | 0.23 | 0.00 | 61 | 1009.1 |
| 20260510060027 | 8 | 252 | 1.6 | 11.3 | 0.00 | 0.23 | 0.00 | 62 | 1009.2 |
| 20260510054524 | 8 | 271 | 1.6 | 6.4 | 0.00 | 0.23 | 0.00 | 61 | 1008.8 |
| 20260510053044 | 8 | 288 | 0.0 | 6.4 | 0.00 | 0.23 | 0.00 | 61 | 1008.5 |
| 20260510051519 | 8 | 273 | 1.6 | 12.9 | 0.00 | 0.23 | 0.00 | 60 | 1008.4 |
| 20260510050020 | 9 | 272 | 1.6 | 6.4 | 0.00 | 0.23 | 0.00 | 62 | 1008.3 |
| 20260510044513 | 9 | 263 | 3.2 | 14.5 | 0.00 | 0.23 | 0.00 | 63 | 1008.4 |
| 20260510043012 | 9 | 292 | 1.6 | 6.4 | 0.00 | 0.23 | 0.00 | 63 | 1007.8 |
| 20260510041509 | 9 | 258 | 1.6 | 11.3 | 0.00 | 0.23 | 0.00 | 65 | 1007.8 |
| 20260510040006 | 9 | 288 | 1.6 | 9.7 | 0.00 | 0.23 | 0.23 | 64 | 1007.7 |
| 20260510034503 | 9 | 294 | 0.0 | 6.4 | 0.00 | 0.23 | 0.23 | 64 | 1007.4 |
| 20260510033002 | 9 | 348 | 1.6 | 8.0 | 0.00 | 0.23 | 0.23 | 66 | 1007.2 |
| 20260510031505 | 10 | 303 | 1.6 | 14.5 | 0.00 | 0.23 | 0.23 | 68 | 1007.1 |
| 20260510030001 | 10 | 311 | 1.6 | 8.0 | 0.00 | 0.23 | 0.23 | 70 | 1006.6 |
| 20260510024609 | 10 | 316 | 1.6 | 8.0 | 0.00 | 0.23 | 0.23 | 71 | 1006.7 |
| 20260510023100 | 10 | 325 | 1.6 | 6.4 | 0.00 | 0.23 | 0.23 | 72 | 1006.7 |
| 20260510021600 | 11 | 287 | 1.6 | 12.9 | 0.00 | 0.23 | 0.23 | 77 | 1006.7 |
| 20260510020059 | 11 | 321 | 4.8 | 16.1 | 0.00 | 0.23 | 0.23 | 87 | 1006.3 |
| 20260510014558 | 11 | 274 | 4.8 | 12.9 | 0.00 | 0.23 | 0.23 | 89 | 1005.8 |
| 20260510013058 | 11 | 238 | 1.6 | 12.9 | 0.00 | 0.23 | 0.23 | 89 | 1005.4 |
| 20260510011557 | 11 | 223 | 1.6 | 6.4 | 0.00 | 0.23 | 0.23 | 89 | 1004.8 |
| 20260510010056 | 11 | 222 | 0.0 | 6.4 | 0.00 | 0.23 | 0.23 | 88 | 1004.4 |
| 20260510004600 | 11 | 215 | 1.6 | 6.4 | 0.08 | 0.23 | 0.23 | 87 | 1004.2 |
| 20260510003057 | 11 | 235 | 1.6 | 8.0 | 0.08 | 0.23 | 0.23 | 86 | 1004.0 |
| 20260510001555 | 12 | 236 | 1.6 | 6.4 | 0.10 | 0.23 | 0.23 | 85 | 1003.8 |
| 20260510000100 | 12 | 227 | 1.6 | 8.0 | 0.10 | 0.23 | 0.23 | 83 | 1003.8 |
| 20260509234555 | 12 | 273 | 1.6 | 14.5 | 0.03 | 0.15 | 0.15 | 81 | 1003.4 |
| 20260509233057 | 13 | 229 | 3.2 | 12.9 | 0.03 | 0.15 | 0.15 | 80 | 1003.0 |
| 20260509231553 | 13 | 254 | 3.2 | 14.5 | 0.00 | 0.13 | 0.13 | 79 | 1002.8 |
| 20260509230055 | 13 | 219 | 6.4 | 20.9 | 0.00 | 0.13 | 0.13 | 78 | 1002.5 |
| 20260509224553 | 14 | 184 | 4.8 | 17.7 | 0.00 | 0.13 | 0.13 | 78 | 1002.4 |
| 20260509223054 | 13 | 212 | 4.8 | 24.1 | 0.05 | 0.13 | 0.13 | 80 | 1002.5 |
| 20260509221551 | 13 | 196 | 6.4 | 29.0 | 0.13 | 0.13 | 0.13 | 84 | 1002.3 |
| 20260509220051 | 13 | 193 | 4.8 | 25.7 | 0.13 | 0.13 | 0.13 | 83 | 1002.3 |
| 20260509214605 | 13 | 202 | 3.2 | 29.0 | 0.13 | 0.13 | 0.13 | 80 | 1002.1 |
| 20260509213050 | 15 | 217 | 3.2 | 17.7 | 0.05 | 0.05 | 0.05 | 74 | 1002.7 |
| 20260509211549 | 16 | 205 | 3.2 | 25.7 | 0.00 | 0.00 | 0.00 | 65 | 1002.5 |
| 20260509210052 | 16 | 184 | 6.4 | 38.6 | 0.00 | 0.00 | 0.00 | 59 | 1002.6 |
| 20260509204548 | 16 | 183 | 4.8 | 40.2 | 0.00 | 0.00 | 0.00 | 56 | 1002.2 |
| 20260509203058 | 16 | 205 | 4.8 | 22.5 | 0.00 | 0.00 | 0.00 | 57 | 1001.8 |
| 20260509201545 | 16 | 211 | 3.2 | 19.3 | 0.00 | 0.00 | 0.00 | 59 | 1002.0 |
| 20260509200044 | 16 | 182 | 8.0 | 20.9 | 0.00 | 0.00 | 0.00 | 62 | 1002.2 |
| 20260509194547 | 16 | 173 | 6.4 | 22.5 | 0.00 | 0.00 | 0.00 | 67 | 1002.5 |
| 20260509193041 | 16 | 184 | 8.0 | 24.1 | 0.00 | 0.00 | 0.00 | 66 | 1002.7 |
| 20260509191554 | 16 | 173 | 3.2 | 24.1 | 0.00 | 0.00 | 0.00 | 66 | 1002.8 |
| 20260509190041 | 16 | 162 | 6.4 | 29.0 | 0.00 | 0.00 | 0.00 | 66 | 1002.9 |
| 20260509184548 | 17 | 180 | 8.0 | 20.9 | 0.00 | 0.00 | 0.00 | 62 | 1003.0 |
| 20260509183048 | 17 | 146 | 4.8 | 29.0 | 0.00 | 0.00 | 0.00 | 65 | 1003.1 |
| 20260509181536 | 17 | 168 | 8.0 | 25.7 | 0.00 | 0.00 | 0.00 | 65 | 1003.0 |
| 20260509180035 | 17 | 162 | 6.4 | 29.0 | 0.00 | 0.00 | 0.00 | 63 | 1003.3 |
| 20260509174533 | 17 | 164 | 11.3 | 22.5 | 0.00 | 0.00 | 0.00 | 62 | 1003.4 |
| 20260509173033 | 16 | 131 | 8.0 | 25.7 | 0.00 | 0.00 | 0.00 | 66 | 1003.7 |
| 20260509171529 | 17 | 148 | 8.0 | 19.3 | 0.00 | 0.00 | 0.00 | 64 | 1004.1 |
| 20260509170025 | 17 | 125 | 3.2 | 19.3 | 0.00 | 0.00 | 0.00 | 66 | 1004.5 |
| 20260509164523 | 17 | 190 | 4.8 | 19.3 | 0.00 | 0.00 | 0.00 | 60 | 1004.8 |
| 20260509163031 | 16 | 171 | 4.8 | 19.3 | 0.00 | 0.00 | 0.00 | 67 | 1004.8 |
| 20260509161516 | 16 | 170 | 3.2 | 19.3 | 0.00 | 0.00 | 0.00 | 68 | 1004.9 |
| 20260509160016 | 16 | 190 | 4.8 | 16.1 | 0.00 | 0.00 | 0.00 | 70 | 1005.2 |
| 20260509154510 | 15 | 199 | 3.2 | 16.1 | 0.00 | 0.00 | 0.00 | 75 | 1005.6 |
| 20260509153008 | 13 | 173 | 3.2 | 16.1 | 0.00 | 0.00 | 0.00 | 77 | 1005.9 |
| 20260509151503 | 13 | 247 | 3.2 | 12.9 | 0.00 | 0.00 | 0.00 | 77 | 1006.1 |
| 20260509150103 | 12 | 178 | 3.2 | 12.9 | 0.00 | 0.00 | 0.00 | 79 | 1006.2 |
| 20260509144600 | 12 | 180 | 1.6 | 12.9 | 0.00 | 0.00 | 0.00 | 79 | 1006.1 |
| 20260509143054 | 12 | 200 | 4.8 | 19.3 | 0.00 | 0.00 | 0.00 | 80 | 1006.0 |
| 20260509141551 | 11 | 197 | 3.2 | 12.9 | 0.00 | 0.00 | 0.00 | 79 | 1006.4 |
| 20260509140051 | 11 | 211 | 3.2 | 11.3 | 0.00 | 0.00 | 0.00 | 78 | 1006.5 |
| 20260509134547 | 11 | 176 | 3.2 | 14.5 | 0.00 | 0.00 | 0.00 | 80 | 1006.6 |
| 20260509133043 | 10 | 136 | 1.6 | 9.7 | 0.00 | 0.00 | 0.00 | 80 | 1006.7 |
| 20260509131538 | 9 | 118 | 1.6 | 9.7 | 0.00 | 0.00 | 0.00 | 79 | 1006.7 |
| 20260509130041 | 9 | 148 | 1.6 | 11.3 | 0.00 | 0.03 | 0.00 | 77 | 1007.0 |
| 20260509124542 | 9 | 166 | 4.8 | 11.3 | 0.00 | 0.03 | 0.00 | 77 | 1007.0 |
| 20260509123035 | 8 | 142 | 4.8 | 12.9 | 0.00 | 0.03 | 0.00 | 77 | 1007.1 |
| 20260509121532 | 8 | 175 | 3.2 | 9.7 | 0.00 | 0.03 | 0.00 | 78 | 1007.1 |
| 20260509120026 | 7 | 157 | 1.6 | 8.0 | 0.00 | 0.03 | 0.00 | 78 | 1007.1 |
| 20260509114524 | 6 | 138 | 1.6 | 9.7 | 0.00 | 0.03 | 0.00 | 83 | 1006.9 |
| 20260509113024 | 5 | 108 | 0.0 | 4.8 | 0.00 | 0.03 | 0.00 | 88 | 1007.1 |
| 20260509111518 | 4 | 188 | 1.6 | 4.8 | 0.00 | 0.03 | 0.00 | 89 | 1007.0 |
| 20260509110014 | 3 | 202 | 0.0 | 0.0 | 0.00 | 0.03 | 0.00 | 88 | 1007.0 |
| 20260509104511 | 3 | 202 | 0.0 | 0.0 | 0.00 | 0.03 | 0.00 | 88 | 1007.1 |
| 20260509103009 | 3 | 202 | 0.0 | 0.0 | 0.00 | 0.03 | 0.00 | 88 | 1007.2 |
| 20260509101510 | 3 | 202 | 0.0 | 3.2 | 0.00 | 0.03 | 0.00 | 88 | 1007.3 |
| 20260509100005 | 3 | 187 | 0.0 | 1.6 | 0.00 | 0.03 | 0.00 | 88 | 1007.3 |
| 20260509094501 | 3 | 187 | 0.0 | 3.2 | 0.00 | 0.03 | 0.00 | 88 | 1007.2 |
| 20260509093059 | 3 | 188 | 0.0 | 0.0 | 0.00 | 0.03 | 0.00 | 87 | 1007.4 |
| 20260509091606 | 3 | 188 | 0.0 | 0.0 | 0.00 | 0.03 | 0.00 | 88 | 1007.4 |
| 20260509084600 | 3 | 188 | 0.0 | 0.0 | 0.00 | 0.03 | 0.00 | 87 | 1007.6 |
| 20260509083101 | 3 | 188 | 0.0 | 3.2 | 0.00 | 0.03 | 0.00 | 87 | 1007.6 |
| 20260509081551 | 3 | 180 | 0.0 | 0.0 | 0.00 | 0.03 | 0.00 | 86 | 1007.6 |
| 20260509080053 | 3 | 180 | 0.0 | 1.6 | 0.00 | 0.03 | 0.00 | 86 | 1007.7 |
| 20260509074553 | 3 | 180 | 0.0 | 0.0 | 0.00 | 0.03 | 0.00 | 85 | 1007.7 |
| 20260509073051 | 3 | 180 | 0.0 | 0.0 | 0.00 | 0.03 | 0.00 | 85 | 1007.7 |